Time,TemperatureF,DewpointF,PressureIn,WindDirection,WindDirectionDegrees,WindSpeedMPH,WindSpeedGustMPH,Humidity,HourlyPrecipIn,Conditions,Clouds,dailyrainin,SoftwareType,DateUTC
2013-11-14 00:13:00,41.4,34.7,30.24,WNW,292,2.2,-999.0,77,-99.99,,,0.00,Acu-Link.com,2013-11-14 05:13:00,
2013-11-14 00:29:00,41.4,34.7,30.23,North,0,2.2,-999.0,77,-99.99,,,0.00,Acu-Link.com,2013-11-14 05:29:00,
2013-11-14 00:44:00,41.4,35.1,30.24,WNW,292,2.7,-999.0,78,-99.99,,,0.00,Acu-Link.com,2013-11-14 05:44:00,
2013-11-14 00:59:00,41.2,35.2,30.23,WNW,292,2.2,-999.0,79,-99.99,,,0.00,Acu-Link.com,2013-11-14 05:59:00,
2013-11-14 01:14:00,41.0,35.3,30.22,WNW,292,2.2,-999.0,80,-99.99,,,0.00,Acu-Link.com,2013-11-14 06:14:00,
2013-11-14 01:30:00,40.8,35.4,30.22,NW,315,1.7,-999.0,81,-99.99,,,0.00,Acu-Link.com,2013-11-14 06:30:00,
2013-11-14 01:45:00,40.6,35.5,30.21,WNW,292,2.2,-999.0,82,-99.99,,,0.00,Acu-Link.com,2013-11-14 06:45:00,
2013-11-14 02:00:00,40.5,35.8,30.21,WNW,292,2.2,-999.0,83,-99.99,,,0.00,Acu-Link.com,2013-11-14 07:00:00,
2013-11-14 02:16:00,40.3,35.9,30.20,SW,225,2.2,-999.0,84,-99.99,,,0.00,Acu-Link.com,2013-11-14 07:16:00,
2013-11-14 02:31:00,40.5,36.1,30.21,WNW,292,1.7,-999.0,84,-99.99,,,0.00,Acu-Link.com,2013-11-14 07:31:00,
2013-11-14 02:46:00,40.5,36.4,30.20,NW,315,1.7,-999.0,85,-99.99,,,0.00,Acu-Link.com,2013-11-14 07:46:00,
2013-11-14 03:02:00,40.5,36.6,30.20,West,270,2.2,-999.0,86,-99.99,,,0.00,Acu-Link.com,2013-11-14 08:02:00,
2013-11-14 03:17:00,40.5,36.9,30.20,NNW,337,1.7,-999.0,87,-99.99,,,0.00,Acu-Link.com,2013-11-14 08:17:00,
2013-11-14 03:32:00,40.3,36.7,30.20,NNW,337,1.7,-999.0,87,-99.99,,,0.00,Acu-Link.com,2013-11-14 08:32:00,
2013-11-14 03:48:00,40.3,37.3,30.20,West,270,1.7,-999.0,89,-99.99,,,0.00,Acu-Link.com,2013-11-14 08:48:00,
2013-11-14 04:03:00,40.3,37.6,30.20,NW,315,1.7,-999.0,90,-99.99,,,0.00,Acu-Link.com,2013-11-14 09:03:00,
2013-11-14 04:18:00,40.1,37.4,30.20,West,270,1.7,-999.0,90,-99.99,,,0.00,Acu-Link.com,2013-11-14 09:18:00,
2013-11-14 04:34:00,40.3,37.6,30.20,NW,315,2.2,-999.0,90,-99.99,,,0.00,Acu-Link.com,2013-11-14 09:34:00,
2013-11-14 04:49:00,40.3,37.9,30.20,West,270,1.7,-999.0,91,-99.99,,,0.00,Acu-Link.com,2013-11-14 09:49:00,
2013-11-14 05:04:00,40.1,38.0,30.20,WNW,292,1.1,-999.0,92,-99.99,,,0.00,Acu-Link.com,2013-11-14 10:04:00,
2013-11-14 05:20:00,39.9,37.8,30.20,WNW,292,0.0,-999.0,92,-99.99,,,0.00,Acu-Link.com,2013-11-14 10:20:00,
2013-11-14 05:35:00,40.1,38.0,30.19,WNW,292,0.0,-999.0,92,-99.99,,,0.00,Acu-Link.com,2013-11-14 10:35:00,
2013-11-14 05:50:00,40.3,38.4,30.20,NNW,337,0.0,-999.0,93,-99.99,,,0.00,Acu-Link.com,2013-11-14 10:50:00,
2013-11-14 06:05:00,40.1,38.2,30.21,WNW,292,1.7,-999.0,93,-99.99,,,0.00,Acu-Link.com,2013-11-14 11:05:00,
2013-11-14 06:21:00,40.1,38.2,30.21,NW,315,2.2,-999.0,93,-99.99,,,0.00,Acu-Link.com,2013-11-14 11:21:00,
2013-11-14 06:36:00,40.1,38.5,30.21,West,270,0.0,-999.0,94,-99.99,,,0.00,Acu-Link.com,2013-11-14 11:36:00,
2013-11-14 06:51:00,39.9,38.6,30.21,SW,225,1.7,-999.0,95,-99.99,,,0.00,Acu-Link.com,2013-11-14 11:51:00,
2013-11-14 07:07:00,39.9,38.6,30.22,SW,225,0.0,-999.0,95,-99.99,,,0.00,Acu-Link.com,2013-11-14 12:07:00,
2013-11-14 07:22:00,40.5,39.2,30.22,NW,315,1.7,-999.0,95,-99.99,,,0.00,Acu-Link.com,2013-11-14 12:22:00,
2013-11-14 07:37:00,41.0,39.7,30.22,NNW,337,0.0,-999.0,95,-99.99,,,0.00,Acu-Link.com,2013-11-14 12:37:00,
2013-11-14 07:53:00,42.1,40.5,30.23,NNE,22,1.1,-999.0,94,-99.99,,,0.00,Acu-Link.com,2013-11-14 12:53:00,
2013-11-14 08:08:00,43.2,41.0,30.23,WNW,292,1.1,-999.0,92,-99.99,,,0.00,Acu-Link.com,2013-11-14 13:08:00,
2013-11-14 08:23:00,45.0,42.2,30.23,SW,225,2.7,-999.0,90,-99.99,,,0.00,Acu-Link.com,2013-11-14 13:23:00,
2013-11-14 08:38:00,46.9,43.2,30.24,NE,45,3.2,-999.0,87,-99.99,,,0.00,Acu-Link.com,2013-11-14 13:38:00,
2013-11-14 08:53:00,48.6,44.0,30.24,NW,315,1.7,-999.0,84,-99.99,,,0.00,Acu-Link.com,2013-11-14 13:53:00,
2013-11-14 09:09:00,50.5,45.2,30.23,West,270,3.2,-999.0,82,-99.99,,,0.00,Acu-Link.com,2013-11-14 14:09:00,
2013-11-14 09:24:00,52.7,46.7,30.24,NNW,337,2.7,-999.0,80,-99.99,,,0.00,Acu-Link.com,2013-11-14 14:24:00,
2013-11-14 09:39:00,54.1,47.4,30.25,ESE,112,3.7,-999.0,78,-99.99,,,0.00,Acu-Link.com,2013-11-14 14:39:00,
2013-11-14 09:54:00,57.0,49.9,30.24,WNW,292,2.2,-999.0,77,-99.99,,,0.00,Acu-Link.com,2013-11-14 14:54:00,
2013-11-14 10:10:00,59.0,51.1,30.24,ESE,112,5.8,-999.0,75,-99.99,,,0.00,Acu-Link.com,2013-11-14 15:10:00,
2013-11-14 10:25:00,60.8,53.2,30.24,East,90,3.2,-999.0,76,-99.99,,,0.00,Acu-Link.com,2013-11-14 15:25:00,
2013-11-14 10:40:00,62.2,53.8,30.24,NW,315,3.7,-999.0,74,-99.99,,,0.00,Acu-Link.com,2013-11-14 15:40:00,
2013-11-14 10:55:00,63.5,54.3,30.22,North,0,2.2,-999.0,72,-99.99,,,0.00,Acu-Link.com,2013-11-14 15:55:00,
2013-11-14 11:11:00,64.6,55.0,30.22,ESE,112,4.7,-999.0,71,-99.99,,,0.00,Acu-Link.com,2013-11-14 16:11:00,
2013-11-14 11:26:00,66.2,56.1,30.22,NNE,22,12.5,-999.0,70,-99.99,,,0.00,Acu-Link.com,2013-11-14 16:26:00,
2013-11-14 11:41:00,66.2,56.5,30.21,WNW,292,3.2,-999.0,71,-99.99,,,0.00,Acu-Link.com,2013-11-14 16:41:00,
2013-11-14 11:56:00,67.5,57.0,30.20,NNE,22,4.7,-999.0,69,-99.99,,,0.00,Acu-Link.com,2013-11-14 16:56:00,
2013-11-14 12:11:00,66.7,56.2,30.19,ENE,67,10.9,-999.0,69,-99.99,,,0.00,Acu-Link.com,2013-11-14 17:11:00,
2013-11-14 12:26:00,66.6,56.9,30.18,SSE,157,4.2,-999.0,71,-99.99,,,0.00,Acu-Link.com,2013-11-14 17:26:00,
2013-11-14 12:42:00,67.3,57.6,30.17,West,270,2.7,-999.0,71,-99.99,,,0.00,Acu-Link.com,2013-11-14 17:42:00,
2013-11-14 12:57:00,68.7,57.3,30.17,NE,45,10.9,-999.0,67,-99.99,,,0.00,Acu-Link.com,2013-11-14 17:57:00,
2013-11-14 13:12:00,68.4,57.8,30.16,East,90,4.2,-999.0,69,-99.99,,,0.00,Acu-Link.com,2013-11-14 18:12:00,
2013-11-14 13:27:00,68.2,57.2,30.15,WNW,292,4.7,-999.0,68,-99.99,,,0.00,Acu-Link.com,2013-11-14 18:27:00,
2013-11-14 13:42:00,67.1,57.0,30.14,NNE,22,4.7,-999.0,70,-99.99,,,0.00,Acu-Link.com,2013-11-14 18:42:00,
2013-11-14 13:57:00,67.8,57.3,30.14,NE,45,3.7,-999.0,69,-99.99,,,0.00,Acu-Link.com,2013-11-14 18:57:00,
2013-11-14 14:13:00,67.3,57.2,30.14,North,0,3.7,-999.0,70,-99.99,,,0.00,Acu-Link.com,2013-11-14 19:13:00,
2013-11-14 14:28:00,67.6,57.9,30.14,ENE,67,3.2,-999.0,71,-99.99,,,0.00,Acu-Link.com,2013-11-14 19:28:00,
2013-11-14 14:43:00,66.4,56.7,30.13,ENE,67,3.7,-999.0,71,-99.99,,,0.00,Acu-Link.com,2013-11-14 19:43:00,
2013-11-14 14:58:00,66.7,57.4,30.13,NW,315,1.1,-999.0,72,-99.99,,,0.00,Acu-Link.com,2013-11-14 19:58:00,
2013-11-14 15:14:00,65.8,57.3,30.13,NE,45,8.9,-999.0,74,-99.99,,,0.00,Acu-Link.com,2013-11-14 20:14:00,
2013-11-14 15:29:00,66.4,57.9,30.13,NNE,22,6.3,-999.0,74,-99.99,,,0.00,Acu-Link.com,2013-11-14 20:29:00,
2013-11-14 15:44:00,66.2,57.7,30.13,West,270,2.2,-999.0,74,-99.99,,,0.00,Acu-Link.com,2013-11-14 20:44:00,
2013-11-14 15:59:00,66.0,57.8,30.13,NNE,22,2.7,-999.0,75,-99.99,,,0.00,Acu-Link.com,2013-11-14 20:59:00,
2013-11-14 16:14:00,63.7,57.1,30.13,NW,315,4.2,-999.0,79,-99.99,,,0.00,Acu-Link.com,2013-11-14 21:14:00,
2013-11-14 16:29:00,62.8,57.2,30.12,NW,315,2.2,-999.0,82,-99.99,,,0.00,Acu-Link.com,2013-11-14 21:29:00,
2013-11-14 16:45:00,62.2,57.0,30.12,NE,45,4.7,-999.0,83,-99.99,,,0.00,Acu-Link.com,2013-11-14 21:45:00,
2013-11-14 17:00:00,62.1,57.2,30.12,NNW,337,2.2,-999.0,84,-99.99,,,0.00,Acu-Link.com,2013-11-14 22:00:00,
2013-11-14 17:15:00,61.5,57.3,30.13,ESE,112,1.7,-999.0,86,-99.99,,,0.00,Acu-Link.com,2013-11-14 22:15:00,
2013-11-14 17:31:00,61.0,57.1,30.12,South,180,1.7,-999.0,87,-99.99,,,0.00,Acu-Link.com,2013-11-14 22:31:00,
2013-11-14 17:46:00,60.8,57.2,30.13,West,270,1.1,-999.0,88,-99.99,,,0.00,Acu-Link.com,2013-11-14 22:46:00,
2013-11-14 18:01:00,60.3,56.7,30.12,WNW,292,1.7,-999.0,88,-99.99,,,0.00,Acu-Link.com,2013-11-14 23:01:00,
2013-11-14 18:16:00,60.1,56.8,30.12,WNW,292,2.2,-999.0,89,-99.99,,,0.00,Acu-Link.com,2013-11-14 23:16:00,
2013-11-14 18:32:00,59.9,57.0,30.11,WNW,292,1.1,-999.0,90,-99.99,,,0.00,Acu-Link.com,2013-11-14 23:32:00,
2013-11-14 18:47:00,59.9,57.0,30.11,East,90,3.7,-999.0,90,-99.99,,,0.00,Acu-Link.com,2013-11-14 23:47:00,
2013-11-14 19:02:00,59.2,56.6,30.11,ENE,67,0.0,-999.0,91,-99.99,,,0.00,Acu-Link.com,2013-11-15 00:02:00,
2013-11-14 19:18:00,59.0,57.0,30.12,South,180,0.0,-999.0,93,-99.99,,,0.00,Acu-Link.com,2013-11-15 00:18:00,
2013-11-14 19:33:00,58.8,56.8,30.12,South,180,0.0,-999.0,93,-99.99,,,0.00,Acu-Link.com,2013-11-15 00:33:00,
2013-11-14 19:48:00,57.7,55.7,30.11,West,270,0.0,-999.0,93,-99.99,,,0.00,Acu-Link.com,2013-11-15 00:48:00,
2013-11-14 20:03:00,57.0,55.3,30.11,SW,225,0.0,-999.0,94,-99.99,,,0.00,Acu-Link.com,2013-11-15 01:03:00,
2013-11-14 20:19:00,56.7,55.9,30.10,WNW,292,0.0,-999.0,97,-99.99,,,0.00,Acu-Link.com,2013-11-15 01:19:00,
2013-11-14 20:34:00,56.5,55.9,30.11,NW,315,0.0,-999.0,98,-99.99,,,0.00,Acu-Link.com,2013-11-15 01:34:00,
2013-11-14 20:49:00,67.6,59.4,30.11,SSW,202,1.7,-999.0,75,-99.99,,,0.00,Acu-Link.com,2013-11-15 01:49:00,
2013-11-14 21:05:00,59.0,55.8,30.11,NE,45,1.1,-999.0,89,-99.99,,,0.00,Acu-Link.com,2013-11-15 02:05:00,
2013-11-14 21:20:00,57.0,55.3,30.11,NW,315,2.2,-999.0,94,-99.99,,,0.00,Acu-Link.com,2013-11-15 02:20:00,
2013-11-14 21:36:00,56.3,55.2,30.11,West,270,0.0,-999.0,96,-99.99,,,0.00,Acu-Link.com,2013-11-15 02:36:00,
2013-11-14 21:51:00,56.1,55.3,30.10,WSW,247,0.0,-999.0,97,-99.99,,,0.00,Acu-Link.com,2013-11-15 02:51:00,
2013-11-14 22:06:00,55.9,55.3,30.10,WNW,292,0.0,-999.0,98,-99.99,,,0.00,Acu-Link.com,2013-11-15 03:06:00,
2013-11-14 22:21:00,55.6,55.0,30.10,West,270,1.1,-999.0,98,-99.99,,,0.00,Acu-Link.com,2013-11-15 03:21:00,
2013-11-14 22:37:00,55.4,55.1,30.10,WSW,247,0.0,-999.0,99,-99.99,,,0.00,Acu-Link.com,2013-11-15 03:37:00,
2013-11-14 22:52:00,55.0,54.7,30.10,WSW,247,0.0,-999.0,99,-99.99,,,0.00,Acu-Link.com,2013-11-15 03:52:00,
2013-11-14 23:07:00,54.7,54.4,30.09,West,270,0.0,-999.0,99,-99.99,,,0.00,Acu-Link.com,2013-11-15 04:07:00,
2013-11-14 23:23:00,54.5,54.2,30.09,WSW,247,0.0,-999.0,99,-99.99,,,0.00,Acu-Link.com,2013-11-15 04:23:00,
2013-11-14 23:38:00,54.1,53.8,30.08,WSW,247,0.0,-999.0,99,-99.99,,,0.00,Acu-Link.com,2013-11-15 04:38:00,
2013-11-14 23:53:00,54.0,53.7,30.08,West,270,0.0,-999.0,99,-99.99,,,0.00,Acu-Link.com,2013-11-15 04:53:00,